Regional Weather Roundup
Issued by NWS

Home | Current Version | Previous Version | Graphics & Text | Print | Product List | Glossary On
Versions: 1 2 3 4 5 6 7 8 9 10 11 12 13 14 15 16 17 18 19 20 21 22 23 24 25 26 27 28 29 30 31 32 33 34 35 36 37 38 39 40 41 42 43 44 45 46 47 48 49 50
000
ASUS43 KLOT 202208
RWRIL

ILLINOIS REGIONAL WEATHER ROUNDUP
NATIONAL WEATHER SERVICE CHICAGO/ROMEOVILLE IL
400 PM CST FRI JAN 20 2017

NOTE: "FAIR" INDICATES FEW OR NO CLOUDS BELOW 12,000 FEET WITH NO
SIGNIFICANT WEATHER AND/OR OBSTRUCTIONS TO VISIBILITY.

* THESE STATIONS ARE NOT UNDER NWS QUALITY CONTROL. THEY ALSO MAY NOT
  REPORT WEATHER SUCH AS PRECIPITATION OR FOG.

ILZ001-002-007-009-015-016-024-202300-
NORTHWEST ILLINOIS

CITY           SKY/WX    TMP DP  RH WIND       PRES   REMARKS
MOLINE         CLOUDY    46  42  86 E5        29.58F
STERLING*      CLOUDY    41  40  96 CALM      29.63R FOG
SAVANNA*       CLOUDY    40  39  97 SE5       29.61S FOG
$$

ILZ003-004-008-010-011-017-018-202300-
NORTH CENTRAL ILLINOIS

CITY           SKY/WX    TMP DP  RH WIND       PRES   REMARKS
ROCKFORD       DRZL/FOG  41  39  93 SE6       29.64R VSB 3/4
FREEPORT*      FOG       38  38 100 CALM      29.64R VSB 1/4
ROCHELLE*      CLOUDY    40  40  98 SE6       29.64R FOG
DE KALB*       FOG       40  40  99 SE6       29.64R VSB 3/4
$$

ILZ005-006-012>014-019>023-202300-
NORTHEAST ILLINOIS

CITY           SKY/WX    TMP DP  RH WIND       PRES   REMARKS
CHICAGO-OHARE  CLOUDY    41  40  96 E6        29.63R FOG
CHICAGO-MIDWAY CLOUDY    42  40  92 SE6       29.64R FOG
AURORA         CLOUDY    43  40  89 SE3       29.64R FOG
LANSING*       CLOUDY    44  44 100 CALM      29.65S
JOLIET*        CLOUDY    45  44  95 SE3       29.64R
WAUKEGAN       FOG       37  37 100 E5        29.64R VSB 1/16WCI  33
DUPAGE AIRPORT FOG       41  39  93 SE6       29.62R VSB 3/4
KANKAKEE*      CLOUDY    47  47  97 CALM      29.65R
WHEELING       FOG       39  38  96 E5        29.65R VSB 1
MORRIS*        CLOUDY    43  42  95 CALM      29.63R FOG
ROMEOVILLE*    CLOUDY    43  43 100 S5        29.64R
NORTHERLY ISL    N/A     35  35 100 CALM        N/A
$$

LMZ740>746-202300-
SOUTHERN LAKE MICHIGAN

STATION/POSITION SKY/WX   TEMP    WIND        PRES    VSBY  WAVE
                          AIR SEA DIR/SP/G                  HT/PER
                          (F)     (DEG/KT/KT) (MB)    (MI)  (FT/S)
HARRISON CRIB              38     110/  8/  9   N/A
BURNHAM HARBOR             35      CALM  /  2   N/A
CALUMET HARBOR             36      70/  4/  5 1003.5R
BURNS HARBOR               36      80/  5/  6 1004.7R
MICHIGAN CITY              38      40/  3/  3   N/A
$$

ILZ025>027-034>036-040-047-049-050-058-095>099-202300-
WEST-CENTRAL ILLINOIS

CITY           SKY/WX    TMP DP  RH WIND       PRES   REMARKS
QUINCY         CLOUDY    49  48  97 E8        29.53F
GALESBURG*     CLOUDY    45  45  98 SE3       29.58F
MACOMB*        CLOUDY    46  46 100 E7        29.59F FOG
JACKSONVILLE*  CLOUDY    49  47  94 SE3       29.58S
PITTSFIELD*    CLOUDY    49  48  97 SE7       29.57S FOG
$$

ILZ028>032-037-038-041>044-048-051>054-059>061-202300-
CENTRAL ILLINOIS

CITY           SKY/WX    TMP DP  RH WIND       PRES   REMARKS
PONTIAC        CLOUDY    48  48 100 S9        29.64R
BLOOMINGTON    FOG       47  47 100 SE6       29.63R VSB 1/4
DECATUR        CLOUDY    51  49  92 S6        29.61S
PEORIA         CLOUDY    47  46  97 SE3       29.61S
LACON*         CLOUDY    44  44  99 CALM      29.60S
LINCOLN*       CLOUDY    50  50 100 E5        29.61S FOG
SPRINGFIELD    CLOUDY    53  47  79 S9        29.60F
TAYLORVILLE    CLOUDY    51  48  89 SE3       29.60S
$$

ILZ033-039-045-046-055>057-062-063-202300-
EAST-CENTRAL ILLINOIS

CITY           SKY/WX    TMP DP  RH WIND       PRES   REMARKS
CHAMPAIGN      CLOUDY    50  46  86 S7        29.64R
RANTOUL*       CLOUDY    51  49  93 S10       29.65R
MATTOON        CLOUDY    51  49  92 SE6       29.62S
PARIS*         CLOUDY    51  49  94 SE6       29.66S
$$

ILZ079-100>102-202300-
SOUTHWEST ILLINOIS

CITY           SKY/WX    TMP DP  RH WIND       PRES   REMARKS
ALTON          CLOUDY    52  48  87 SE8       29.58F
BELLEVILLE     CLOUDY    55  55  99 E6        29.57F
CAHOKIA*       CLOUDY    56  50  80 SE7       29.56F
SPARTA*        CLOUDY    57  52  84 S9        29.60S
$$

ILZ064>066-069>071-074>076-080>082-084>086-088>090-092>094-202300-
SOUTH-CENTRAL ILLINOIS

CITY           SKY/WX    TMP DP  RH WIND       PRES   REMARKS
CARBONDALE     CLOUDY    59  54  83 S14       29.62R
CAIRO*         PTSUNNY   60  55  82 S8        29.65R
EFFINGHAM*     CLOUDY    54  53  98 E3        29.65S
MARION         PTSUNNY   61  57  88 S12       29.63F
MT. VERNON     CLOUDY    58  53  84 S9        29.62S
CENTRALIA*     CLOUDY    57  54  89 S9        29.61S
SALEM*         CLOUDY    57  52  82 S7        29.62R
METROPOLIS*    CLOUDY    61  53  74 CALM      29.66S
$$

ILZ067-068-072-073-078-083-087-091-202300-
SOUTHEAST ILLINOIS

CITY           SKY/WX    TMP DP  RH WIND       PRES   REMARKS
LAWRENCEVILLE  CLOUDY    57  53  86 S10       29.66S
FLORA*         CLOUDY    58  54  85 S9        29.64R
FAIRFIELD*     CLOUDY    58  54  88 SE3       29.63S
HARRISBURG*    CLOUDY    60  54  80 S14       29.64S
ROBINSON*      CLOUDY    55  51  86 S6        29.67R
CARMI*         CLOUDY    59  54  83 S12       29.64S
$$

ABBREVIATIONS USED IN REMARKS
   TC - TEMPERATURE IN CELSIUS
  WCI - WIND CHILL INDEX
   HX - HEAT INDEX
  VSB - VISIBILITY
$$





USA.gov is the U.S. government's official web portal to all federal, state and local government web resources and services.